Date String (YYYY-MM-DD hh:mm:ss) UTC,Instrument flags,Ambient pressure (hPa),Sample flow (lpm),Bypass flow (lpm),Sample temperature (°C),Ambient temperature (°C),ASC tube jacket temperature (°C),LED temperature (°C),Box temperature (°C),Sample RH (%),Span deviation,Mass concentration (μg/m³),Mass concentration (μg/m³),Mass concentration (μg/m³)
DateTimeUTC,F1_M11,P_M11,Q1_M11,Q2_M11,T1_M11,T2_M11,T3_M11,T4_M11,T5_M11,U1_M11,ZSPAN_M11,X2_M11,X0_M11,X1_M11
2022-08-30 14:00:00,,0833.9,4.99,0.00,30.1,27.7,00.0,39.0,31.8,21.8,0000.0,0007.01,0016.44,0005.88
2022-08-30 14:01:00,,0833.9,5.00,0.00,30.1,27.9,00.0,38.9,31.8,21.8,0000.0,0006.96,0016.40,0005.85
2022-08-30 14:02:00,,0833.9,5.00,0.00,30.1,28.1,00.0,38.9,31.8,21.8,0000.0,0006.86,0015.38,0005.82
2022-08-30 14:03:00,,0833.9,5.01,0.00,30.1,28.3,00.0,38.9,31.8,21.8,0000.0,0006.84,0015.22,0005.77
2022-08-30 14:04:00,,0834.0,5.00,0.00,30.1,28.4,00.0,38.9,31.8,21.8,0000.0,0006.78,0015.15,0005.72
2022-08-30 14:05:00,,0834.0,5.00,0.00,30.1,28.5,00.0,38.9,31.8,21.6,0000.0,0006.73,0015.26,0005.67
2022-08-30 14:06:00,,0834.0,5.00,0.00,30.1,28.6,00.0,38.9,31.8,21.8,0000.0,0006.70,0015.35,0005.62
2022-08-30 14:07:00,,0834.0,4.98,0.00,30.1,28.7,00.0,38.9,31.9,21.8,0000.0,0006.62,0015.09,0005.57
2022-08-30 14:08:00,,0834.0,5.00,0.00,30.1,28.8,00.0,38.9,31.9,21.8,0000.0,0006.58,0014.94,0005.53
2022-08-30 14:09:00,,0834.0,5.00,0.00,30.1,28.8,00.0,38.9,31.9,21.7,0000.0,0006.57,0015.28,0005.50
2022-08-30 14:10:00,,0834.0,5.01,0.00,30.1,28.9,00.0,38.9,31.9,21.7,0000.0,0006.54,0014.93,0005.46
2022-08-30 14:11:00,,0834.0,5.01,0.00,30.1,28.9,00.0,38.9,31.9,21.7,0000.0,0006.54,0014.40,0005.45
2022-08-30 14:12:00,,0834.0,4.99,0.00,30.1,29.0,00.0,38.9,32.0,21.9,0000.0,0006.54,0014.05,0005.45
2022-08-30 14:13:00,,0834.0,5.01,0.00,30.2,29.0,00.0,38.9,32.0,21.8,0000.0,0006.52,0014.49,0005.45
2022-08-30 14:14:00,,0834.0,5.00,0.00,30.2,29.0,00.0,38.9,32.0,22.1,0000.0,0006.48,0015.19,0005.45
2022-08-30 14:15:00,,0834.0,4.98,0.00,30.2,29.1,00.0,38.9,32.0,23.0,0000.0,0006.51,0015.33,0005.47
2022-08-30 14:16:00,,0834.1,5.02,0.00,30.2,29.1,00.0,38.9,32.1,22.6,0000.0,0006.57,0015.00,0005.49
2022-08-30 14:17:00,,0834.1,4.99,0.00,30.2,29.2,00.0,39.0,32.1,22.2,0000.0,0006.58,0014.62,0005.50
2022-08-30 14:18:00,,0834.1,5.01,0.00,30.3,29.2,00.0,39.0,32.1,22.1,0000.0,0006.56,0014.46,0005.52
2022-08-30 14:19:00,,0834.0,5.01,0.00,30.3,29.2,00.0,39.0,32.1,22.8,0000.0,0006.58,0014.14,0005.54
2022-08-30 14:20:00,,0834.1,5.01,0.00,30.3,29.2,00.0,39.0,32.1,22.8,0000.0,0006.62,0013.80,0005.55
2022-08-30 14:21:00,,0834.1,4.99,0.00,30.3,28.6,00.0,39.0,32.1,23.1,0000.0,0006.64,0013.68,0005.57
2022-08-30 14:22:00,,0834.0,5.00,0.00,30.3,27.3,00.0,39.0,32.0,23.1,0000.0,0006.64,0014.43,0005.59
2022-08-30 14:23:00,,0834.0,4.99,0.00,30.2,27.1,00.0,38.9,32.0,23.1,0000.0,0006.63,0014.17,0005.60
2022-08-30 14:24:00,,0834.0,5.01,0.00,30.2,27.3,00.0,38.9,31.9,23.3,0000.0,0006.65,0014.44,0005.61
2022-08-30 14:25:00,,0834.0,5.00,0.00,30.1,27.7,00.0,38.9,31.7,23.6,0000.0,0006.66,0014.65,0005.62
2022-08-30 14:26:00,,0834.0,4.99,0.00,30.1,27.9,00.0,38.8,31.8,23.2,0000.0,0006.66,0015.45,0005.63
2022-08-30 14:27:00,,0834.0,4.99,0.00,30.1,28.2,00.0,38.8,31.8,23.1,0000.0,0006.68,0016.08,0005.62
2022-08-30 14:28:00,,0834.0,5.01,0.00,30.1,28.3,00.0,38.8,31.8,23.1,0000.0,0006.75,0016.40,0005.62
2022-08-30 14:29:00,,0834.0,5.00,0.00,30.1,28.5,00.0,38.8,31.8,23.8,0000.0,0006.78,0017.52,0005.62
2022-08-30 14:30:00,,0834.0,5.00,0.00,30.1,28.6,00.0,38.8,31.8,24.3,0000.0,0006.82,0018.29,0005.63
2022-08-30 14:31:00,,0834.0,5.01,0.00,30.1,28.7,00.0,38.8,31.9,24.5,0001.6,0006.81,0019.00,0005.64
2022-08-30 14:32:00,,0834.0,5.00,0.00,30.1,28.8,00.0,38.8,31.9,24.1,0003.1,0006.86,0019.91,0005.64
2022-08-30 14:33:00,,0834.1,4.99,0.00,30.1,28.9,00.0,38.8,31.9,23.8,0002.7,0006.90,0019.37,0005.64
2022-08-30 14:34:00,,0834.0,5.00,0.00,30.1,28.9,00.0,38.8,32.0,23.8,0002.7,0007.00,0019.47,0005.64
2022-08-30 14:35:00,,0834.0,5.00,0.00,30.1,29.0,00.0,38.9,32.0,23.8,0002.7,0007.06,0019.55,0005.63
2022-08-30 14:36:00,,0834.1,5.01,0.00,30.2,29.1,00.0,38.9,32.0,23.7,0002.5,0007.12,0019.30,0005.61
2022-08-30 14:37:00,,0834.0,5.01,0.00,30.2,29.1,00.0,38.9,32.0,23.7,0001.9,0007.16,0018.53,0005.60
2022-08-30 14:38:00,,0834.1,4.98,0.00,30.2,29.2,00.0,38.9,32.1,23.6,0000.2,0007.10,0018.17,0005.58
2022-08-30 14:39:00,,0834.1,5.00,0.00,30.2,29.1,00.0,38.9,32.1,23.5,0000.0,0007.03,0018.41,0005.59
2022-08-30 14:40:00,,0834.1,5.01,0.00,30.2,28.0,00.0,38.9,32.0,23.7,0000.0,0007.01,0017.81,0005.58
2022-08-30 14:41:00,,0834.1,4.99,0.00,30.2,27.1,00.0,38.9,31.9,24.9,0000.0,0007.02,0017.39,0005.57
2022-08-30 14:42:00,,0834.1,5.01,0.00,30.1,27.1,00.0,38.8,31.9,25.7,0000.0,0007.02,0017.08,0005.57
2022-08-30 14:43:00,,0834.1,5.00,0.00,30.1,27.4,00.0,38.8,31.8,26.3,0000.0,0007.04,0016.52,0005.56
2022-08-30 14:44:00,,0834.1,5.01,0.00,30.0,27.7,00.0,38.8,31.7,26.7,0000.0,0007.13,0016.85,0005.58
2022-08-30 14:45:00,,0834.1,4.99,0.00,30.0,27.9,00.0,38.7,31.7,26.4,0000.0,0007.17,0017.93,0005.60
2022-08-30 14:46:00,,0834.1,5.00,0.00,30.0,28.2,00.0,38.7,31.7,26.4,0000.0,0007.15,0017.91,0005.60
2022-08-30 14:47:00,,0834.1,5.00,0.00,30.0,28.3,00.0,38.7,31.8,26.3,0000.0,0007.18,0018.82,0005.61
2022-08-30 14:48:00,,0834.1,5.00,0.00,30.0,28.5,00.0,38.7,31.8,26.4,0000.0,0007.21,0020.04,0005.62
2022-08-30 14:49:00,,0834.1,5.00,0.00,30.0,28.6,00.0,38.7,31.8,26.5,0000.0,0007.27,0019.95,0005.63
2022-08-30 14:50:00,,0834.0,5.00,0.00,30.0,28.7,00.0,38.7,31.8,26.2,0000.0,0007.31,0020.22,0005.64
2022-08-30 14:51:00,,0834.1,5.00,0.00,30.0,28.8,00.0,38.8,31.9,26.0,0000.0,0007.41,0020.63,0005.66
2022-08-30 14:52:00,,0834.1,5.01,0.00,30.0,28.9,00.0,38.8,31.9,26.1,0000.0,0007.38,0021.32,0005.68
2022-08-30 14:53:00,,0834.1,5.00,0.00,30.1,28.9,00.0,38.8,31.9,26.4,0000.0,0007.36,0022.02,0005.68
2022-08-30 14:54:00,,0834.1,4.99,0.00,30.1,29.0,00.0,38.8,32.0,26.2,0000.0,0007.32,0021.63,0005.69
2022-08-30 14:55:00,,0834.1,5.01,0.00,30.1,29.0,00.0,38.8,32.0,26.3,0000.0,0007.21,0021.16,0005.67
2022-08-30 14:56:00,,0834.1,5.01,0.00,30.1,29.1,00.0,38.8,32.0,26.7,0000.0,0007.13,0020.33,0005.67
2022-08-30 14:57:00,,0834.2,4.99,0.00,30.2,29.2,00.0,38.8,32.0,26.9,0000.0,0007.16,0020.56,0005.68
2022-08-30 14:58:00,,0834.3,5.00,0.00,30.2,28.8,00.0,38.8,32.1,27.0,0000.0,0007.13,0020.31,0005.68
2022-08-30 14:59:00,,0834.3,5.00,0.00,30.2,27.6,00.0,38.8,31.9,26.9,0000.0,0007.11,0020.04,0005.69
